National Weather Service United States Department of Commerce


000
ASUS42 KCAE 191810
RWRCAE
REGIONAL WEATHER ROUNDUP
NATIONAL WEATHER SERVICE COLUMBIA SC
100 PM EST WED JAN 19 2022

NOTE: "FAIR" INDICATES FEW OR NO CLOUDS BELOW 12,000 FEET WITH NO
SIGNIFICANT WEATHER AND/OR OBSTRUCTIONS TO VISIBILITY.

NOT ALL STATIONS ARE QUALITY CONTROLLED BY THE NATIONAL
WEATHER SERVICE. USE DATA WITH CAUTION...ESPECIALLY
DEWPOINT OBSERVATIONS.

SCZ001>059-115-116-135>137-GAZ040-063>065-077-191900-
...UPSTATE SOUTH CAROLINA...

CITY SKY/WX TMP DP RH WIND PRES REMARKS
ANDERSON SUNNY 55 33 43 SW10 30.19F
6HR MIN TEMP: 27; 6HR MAX TEMP: 55;

LIBERTY SUNNY 52 34 49 W10 30.17F
6HR MIN TEMP: 26; 6HR MAX TEMP: 51;

SPARTANBURG SUNNY 52 28 40 SW7 30.18F
CLEMSON SUNNY 52 33 48 W9 30.19F
6HR MIN TEMP: 31; 6HR MAX TEMP: 52;

GREENVILLE SUNNY 53 30 41 SW9 30.18F
6HR MIN TEMP: 35; 6HR MAX TEMP: 53;

GREENWOOD SUNNY 57 28 33 S10 30.21F
6HR MIN TEMP: 28; 6HR MAX TEMP: 57;

GREER SUNNY 51 28 41 SW15 30.18F
6HR MIN TEMP: 31; 6HR MAX TEMP: 51;

ROCK HILL MOSUNNY 54 32 43 SW14 30.18F
6HR MIN TEMP: 30; 6HR MAX TEMP: 54;

CHESTER MOSUNNY 55 21 26 S9 30.20F
LAURENS SUNNY 55 30 38 SW9 30.20F


...CENTRAL SOUTH CAROLINA...

CITY SKY/WX TMP DP RH WIND PRES REMARKS
COLUMBIA APT MOSUNNY 58 30 34 S7 30.22F
6HR MIN TEMP: 30; 6HR MAX TEMP: 58;

COLUMBIA OWENS SUNNY 59 31 34 VRB7 30.24F
6HR MIN TEMP: 32; 6HR MAX TEMP: 60;

MCENTIRE ANGB MOSUNNY 59 30 33 SW6 30.22F
6HR MIN TEMP: 27; 6HR MAX TEMP: 60; 6HR PCP: TRACE;

ORANGEBURG SUNNY 57 34 41 SW7 30.24F
6HR MIN TEMP: 29; 6HR MAX TEMP: 58;

SUMTER SHAW MOSUNNY 59 30 33 SW7 30.22F
6HR MIN TEMP: 28; 6HR MAX TEMP: 59;

NEWBERRY SUNNY 55 28 35 SW12 30.23F
AIKEN FAIR 58 28 31 SW8 30.24F
6HR MIN TEMP: 30; 6HR MAX TEMP: 58;

BARNWELL FAIR 59 34 38 S8 30.24F
MANNING FAIR 55 32 41 S7 30.26F
CAMDEN FAIR 57 28 33 SW9 30.23F
LANCASTER MOSUNNY 57 28 33 S13 30.20F
WINNSBORO SUNNY 57 30 35 S12 30.21F


...EASTERN AND COASTAL SOUTH CAROLINA...

CITY SKY/WX TMP DP RH WIND PRES REMARKS
MYRTLE BEACH SUNNY 55 39 54 SE9 30.27F
6HR MIN TEMP: 29; 6HR MAX TEMP: 57;

N MYRTLE BCH SUNNY 56 40 55 S9 30.26F
6HR MIN TEMP: 29; 6HR MAX TEMP: 57;

CONWAY FAIR 57 36 44 S3 30.26F
MARION FAIR 57 32 38 S8 30.24F
HARTSVILLE FAIR 57 32 38 VRB7G14 30.22F
FLORENCE SUNNY 59 29 31 S10 30.24F
6HR MIN TEMP: 26; 6HR MAX TEMP: 59;

DARLINGTON SUNNY 57 34 41 S12 30.23F
6HR MIN TEMP: 26; 6HR MAX TEMP: 57;

CHARLESTON APT MOSUNNY 61 36 39 S12 30.26F
6HR MIN TEMP: 30; 6HR MAX TEMP: 61;

MOUNT PLEASANT FAIR 59 45 58 CALM 30.26F
WALTERBORO SUNNY 59 30 33 SW5 30.28F
BEAUFORT MOSUNNY 59 37 44 SE6 30.26F
6HR MIN TEMP: 32; 6HR MAX TEMP: 59;

HILTON HEAD SUNNY 57 43 58 CALM 30.28F


...EASTERN GEORGIA...

CITY SKY/WX TMP DP RH WIND PRES REMARKS
AUGUSTA BUSH F MOSUNNY 61 28 28 S7 30.23F
6HR MIN TEMP: 28; 6HR MAX TEMP: 61;

AUGUSTA DANIEL MOSUNNY 60 28 29 SW10 30.24F
6HR MIN TEMP: 35; 6HR MAX TEMP: 60;

THOMSON MOSUNNY 58 29 33 S6 30.22F
6HR MIN TEMP: 30; 6HR MAX TEMP: 58; 6HR PCP: 0.01;

WASHINGTON FAIR 58 30 34 S10 30.21F
6HR MIN TEMP: 30; 6HR MAX TEMP: 58;

CLAXTON FAIR 63 34 33 CALM 30.25F
6HR MIN TEMP: 31; 6HR MAX TEMP: 63;

SYLVANIA MOSUNNY 60 34 37 CALM 30.26F
6HR MIN TEMP: 30; 6HR MAX TEMP: 60;

STATESBORO MOSUNNY 61 32 33 SW7 30.25F
6HR MIN TEMP: 29; 6HR MAX TEMP: 61;

SAVANNAH MOSUNNY 61 35 37 CALM 30.26F
6HR MIN TEMP: 32; 6HR MAX TEMP: 61;



...SOUTHERN NORTH CAROLINA...

CITY SKY/WX TMP DP RH WIND PRES REMARKS
CHARLOTTE PTSUNNY 52 31 44 SW9 30.18F
6HR MIN TEMP: 34; 6HR MAX TEMP: 53;

MONROE PTSUNNY 54 30 40 SW12G18 30.18F
6HR MIN TEMP: 35; 6HR MAX TEMP: 55;

WADESBORO MOSUNNY 57 29 33 S9 30.20F
6HR MIN TEMP: 27; 6HR MAX TEMP: 57;

ROCKINGHAM SUNNY 57 31 36 S10 30.20F
6HR MIN TEMP: 30; 6HR MAX TEMP: 56;

RUTHERFORDTON MOSUNNY 50 28 43 S9G20 30.15F
ASHEVILLE SUNNY 50 24 36 SW8 30.12F
6HR MIN TEMP: 29; 6HR MAX TEMP: 50;


$$